Tracking 18980 objects as of 19-Feb-2018
HD Live streaming from Space Station
objects crossing your sky now

FENGYUN 1C DEB

Track FENGYUN 1C DEB now!
10-day predictions


NORAD ID: 30813
Int'l Code: 1999-025AUX
Perigee: 616.6 km
Apogee: 699.7 km
Inclination: 98.9 °
Period: 97.8 minutes
Semi major axis: 7029 km
RCS: 0.0204 m2 (small)
Launch date: May 10, 1999
Source: People's Republic of China (PRC)
Launch site: Taiyaun Space Center, China (TSC)

Note: This is SATELLITE DEBRIS
aabbcc
Your satellite tracking list
Your tracking list is empty




NASA's NSSDC Master Catalog

Two Line Element Set (TLE):
1 30813U 99025AUX 18049.72252140  .00003239  00000-0  49828-3 0  9996
2 30813  98.9070 324.2288 0059104  95.5338 265.2613 14.73141841580193
Source of the keplerian elements: AFSPC